Date String (YYYY-MM-DD hh:mm:ss) UTC,Instrument flags,absolute air pressure of the measurement (hPa),sample flow rate (lpm),inlet stack bypass flow (lpm),air temperature of the measurement (°C),ambient temperature measured by the external sensor (°C),aerosol sample conditioner tube jacket temperature (°C),OPC LED temperature (°C),internal box temperature (°C),relative humidity of the measurement (%),span deviation,mass concentration of particles derived from Lorenz-Mie calculation of OPC scattering (μg/m³),mass concentration of particles derived from Lorenz-Mie calculation of OPC scattering (μg/m³),mass concentration of particles derived from Lorenz-Mie calculation of OPC scattering (μg/m³)
DateTimeUTC,F1_M11,P_M11,Q1_M11,Q2_M11,T1_M11,T2_M11,T3_M11,T4_M11,T5_M11,U1_M11,ZSPAN_M11,X0_M11,X2_M11,X1_M11
2023-08-08 11:00:00,SystemResetWarning,0831.9,5.00,000.00,029.8,028.3,000.0,038.4,031.3,24.2,0000.7,0012.84,0005.96,0005.05
2023-08-08 11:01:00,SystemResetWarning,0831.9,5.00,000.00,029.8,028.3,000.0,038.5,031.3,25.8,0000.4,0012.51,0005.91,0005.06
2023-08-08 11:02:00,SystemResetWarning,0832.0,5.00,000.00,029.8,028.3,000.0,038.5,031.3,27.0,0000.2,0012.65,0005.89,0005.07
2023-08-08 11:03:00,SystemResetWarning,0832.0,4.99,000.00,029.8,028.3,000.0,038.5,031.3,26.9,0000.1,0011.81,0005.92,0005.08
2023-08-08 11:04:00,SystemResetWarning,0832.0,5.00,000.00,029.8,028.3,000.0,038.5,031.3,26.2,0000.0,0011.62,0005.88,0005.08
2023-08-08 11:05:00,SystemResetWarning,0832.0,5.00,000.00,029.8,028.3,000.0,038.5,031.3,26.3,0000.0,0011.54,0005.86,0005.09
2023-08-08 11:06:00,SystemResetWarning,0831.9,5.00,000.00,029.8,028.3,000.0,038.5,031.3,27.1,0000.0,0011.51,0005.86,0005.11
2023-08-08 11:07:00,SystemResetWarning,0831.9,5.01,000.00,029.8,028.3,000.0,038.5,031.3,27.5,0000.0,0011.23,0005.84,0005.09
2023-08-08 11:08:00,SystemResetWarning,0831.9,5.01,000.00,029.8,028.4,000.0,038.5,031.3,27.6,0000.0,0010.97,0005.83,0005.07
2023-08-08 11:09:00,SystemResetWarning,0831.9,5.00,000.00,029.8,028.4,000.0,038.5,031.3,27.5,0000.0,0011.06,0005.82,0005.06
2023-08-08 11:10:00,SystemResetWarning,0831.9,4.99,000.00,029.8,028.4,000.0,038.5,031.3,27.7,0000.0,0011.06,0005.83,0005.06
2023-08-08 11:11:00,SystemResetWarning,0831.9,4.99,000.00,029.8,028.4,000.0,038.5,031.4,27.7,0000.0,0010.44,0005.80,0005.04
2023-08-08 11:12:00,SystemResetWarning,0831.9,5.00,000.00,029.8,028.4,000.0,038.5,031.4,27.4,0000.0,0010.51,0005.83,0005.03
2023-08-08 11:13:00,SystemResetWarning,0831.9,5.00,000.00,029.8,028.4,000.0,038.5,031.3,27.1,0001.6,0010.97,0005.84,0005.02
2023-08-08 11:14:00,SystemResetWarning,0831.9,5.00,000.00,029.8,028.4,000.0,038.5,031.3,27.1,0002.1,0010.89,0005.81,0005.00
2023-08-08 11:15:00,SystemResetWarning,0831.8,5.01,000.00,029.8,028.4,000.0,038.5,031.4,26.9,0002.0,0011.06,0005.82,0005.00
2023-08-08 11:16:00,SystemResetWarning,0831.8,5.00,000.00,029.8,028.4,000.0,038.5,031.4,26.7,0001.8,0011.28,0005.81,0004.96
2023-08-08 11:17:00,SystemResetWarning,0831.8,4.99,000.00,029.8,028.4,000.0,038.5,031.4,26.1,0002.1,0011.44,0005.81,0004.90
2023-08-08 11:18:00,SystemResetWarning,0832.2,5.00,000.00,029.9,028.4,000.0,038.5,031.4,26.4,0001.9,0011.56,0005.77,0004.85
2023-08-08 11:19:00,SystemResetWarning,0832.2,5.00,000.00,029.9,028.4,000.0,038.5,031.4,26.0,0000.9,0011.91,0005.77,0004.81
2023-08-08 11:20:00,SystemResetWarning,0832.3,5.00,000.00,029.9,028.5,000.0,038.5,031.4,25.9,0000.0,0012.78,0005.77,0004.77
2023-08-08 11:21:00,SystemResetWarning,0832.0,5.01,000.00,029.9,028.5,000.0,038.6,031.4,25.7,0000.0,0013.11,0005.72,0004.71
2023-08-08 11:22:00,SystemResetWarning,0832.2,5.01,000.00,029.9,028.5,000.0,038.6,031.4,25.9,0000.7,0013.36,0005.73,0004.67
2023-08-08 11:23:00,SystemResetWarning,0832.2,5.00,000.00,029.9,028.5,000.0,038.6,031.4,25.6,0001.1,0013.82,0005.67,0004.62
2023-08-08 11:24:00,SystemResetWarning,0831.9,4.99,000.00,029.9,028.5,000.0,038.6,031.4,24.1,0000.5,0013.47,0005.65,0004.62
2023-08-08 11:25:00,SystemResetWarning,0832.1,4.99,000.00,029.9,028.5,000.0,038.6,031.4,24.5,-000.1,0013.22,0005.70,0004.67
2023-08-08 11:26:00,SystemResetWarning,0831.8,5.00,000.00,029.9,028.5,000.0,038.6,031.4,23.6,0000.2,0013.25,0005.77,0004.71
2023-08-08 11:27:00,SystemResetWarning,0832.0,5.00,000.00,029.9,028.5,000.0,038.6,031.4,22.4,0000.4,0013.23,0005.80,0004.74
2023-08-08 11:28:00,SystemResetWarning,0832.3,5.01,000.00,029.9,028.5,000.0,038.6,031.4,21.9,0000.3,0013.04,0005.79,0004.78
2023-08-08 11:29:00,SystemResetWarning,0831.9,5.00,000.00,029.9,028.4,000.0,038.6,031.4,21.8,0000.3,0013.02,0005.85,0004.85
2023-08-08 11:30:00,SystemResetWarning,0831.9,5.00,000.00,029.9,028.5,000.0,038.6,031.4,22.0,0000.5,0012.71,0005.87,0004.92
2023-08-08 11:31:00,SystemResetWarning,0831.8,5.00,000.00,029.9,028.5,000.0,038.6,031.4,21.9,-000.1,0012.05,0005.93,0005.01
2023-08-08 11:32:00,SystemResetWarning,0831.8,5.00,000.00,029.9,028.4,000.0,038.6,031.4,21.9,-000.6,0011.78,0006.04,0005.10
2023-08-08 11:33:00,SystemResetWarning,0831.7,5.00,000.00,029.9,028.4,000.0,038.6,031.4,22.0,-000.6,0011.53,0006.09,0005.20
2023-08-08 11:34:00,SystemResetWarning,0832.1,4.99,000.00,029.9,028.4,000.0,038.6,031.4,22.1,-000.7,0011.18,0006.19,0005.29
2023-08-08 11:35:00,SystemResetWarning,0832.2,5.00,000.00,029.9,028.5,000.0,038.6,031.4,22.1,-000.5,0011.22,0006.27,0005.35
2023-08-08 11:36:00,SystemResetWarning,0832.2,5.00,000.00,029.9,028.5,000.0,038.6,031.4,22.2,-000.2,0011.21,0006.30,0005.35
2023-08-08 11:37:00,SystemResetWarning,0831.9,5.00,000.00,029.9,028.5,000.0,038.6,031.4,22.1,-000.3,0011.32,0006.21,0005.34
2023-08-08 11:38:00,SystemResetWarning,0831.8,5.00,000.00,029.9,028.5,000.0,038.6,031.4,22.0,-000.9,0011.22,0006.24,0005.35
2023-08-08 11:39:00,SystemResetWarning,0831.9,5.00,000.00,029.9,028.5,000.0,038.6,031.5,22.0,-000.8,0011.31,0006.27,0005.37
2023-08-08 11:40:00,SystemResetWarning,0831.9,5.01,000.00,029.9,028.5,000.0,038.6,031.5,22.0,-001.2,0011.64,0006.28,0005.36
2023-08-08 11:41:00,SystemResetWarning,0831.8,5.01,000.00,030.0,028.5,000.0,038.6,031.5,22.0,-001.3,0011.80,0006.28,0005.35
2023-08-08 11:42:00,SystemResetWarning,0831.9,5.00,000.00,030.0,028.5,000.0,038.7,031.5,22.0,-001.0,0011.69,0006.24,0005.33
2023-08-08 11:43:00,SystemResetWarning,0831.9,5.00,000.00,030.0,028.5,000.0,038.7,031.5,22.6,-000.7,0011.22,0006.20,0005.30
2023-08-08 11:44:00,SystemResetWarning,0831.9,4.99,000.00,030.0,028.5,000.0,038.7,031.5,22.9,-000.4,0011.16,0006.18,0005.26
2023-08-08 11:45:00,SystemResetWarning,0831.9,5.00,000.00,030.0,028.5,000.0,038.7,031.5,22.5,-000.0,0011.24,0006.17,0005.22
2023-08-08 11:46:00,SystemResetWarning,0832.0,5.00,000.00,030.0,028.5,000.0,038.7,031.5,22.1,0000.2,0011.70,0006.12,0005.17
2023-08-08 11:47:00,SystemResetWarning,0832.0,5.00,000.00,030.0,028.5,000.0,038.7,031.5,22.0,0000.1,0012.41,0006.01,0005.09
2023-08-08 11:48:00,SystemResetWarning,0832.0,5.00,000.00,030.0,028.5,000.0,038.7,031.5,22.0,0000.0,0012.96,0005.93,0005.03
2023-08-08 11:49:00,SystemResetWarning,0832.0,5.00,000.00,030.0,028.5,000.0,038.7,031.5,21.9,0000.0,0012.91,0005.82,0004.97
2023-08-08 11:50:00,SystemResetWarning,0832.0,5.00,000.00,030.0,028.5,000.0,038.7,031.4,21.7,0000.0,0013.47,0005.73,0004.87
2023-08-08 11:51:00,SystemResetWarning,0832.0,5.00,000.00,030.0,028.5,000.0,038.7,031.5,21.9,0000.0,0013.06,0005.64,0004.78
2023-08-08 11:52:00,SystemResetWarning,0832.0,5.00,000.00,030.0,028.5,000.0,038.7,031.5,22.0,0000.0,0013.04,0005.53,0004.68
2023-08-08 11:53:00,SystemResetWarning,0831.9,4.99,000.00,030.0,028.5,000.0,038.7,031.5,22.1,0000.0,0013.21,0005.44,0004.58
2023-08-08 11:54:00,SystemResetWarning,0831.9,5.00,000.00,030.0,028.5,000.0,038.7,031.5,22.2,0000.0,0013.23,0005.35,0004.49
2023-08-08 11:55:00,SystemResetWarning,0831.9,5.01,000.00,030.0,028.5,000.0,038.7,031.5,22.3,0000.0,0013.30,0005.26,0004.41
2023-08-08 11:56:00,SystemResetWarning,0831.9,5.00,000.00,030.0,028.5,000.0,038.7,031.5,22.8,0000.0,0013.23,0005.15,0004.31
2023-08-08 11:57:00,SystemResetWarning,0831.8,5.00,000.00,030.0,028.5,000.0,038.7,031.5,22.9,0000.0,0012.71,0005.06,0004.24
2023-08-08 11:58:00,SystemResetWarning,0831.8,5.00,000.00,030.0,028.6,000.0,038.7,031.5,23.0,0000.0,0012.20,0005.03,0004.21
2023-08-08 11:59:00,SystemResetWarning,0832.0,5.00,000.00,030.0,028.6,000.0,038.7,031.5,22.9,0000.0,0011.17,0004.99,0004.16
